Terug naar catalogus

ATLAS 5 CENTAUR DEB

ActiefHEO
NORAD 46604·DEBRIS·🇺🇸 United States

Gelanceerd Oct 17, 2018 vanaf Cape Canaveral Space Force Station

Loading…

Volgende Passages (komende 24 uur)

TLE

VersSource: Space-Track

Epoch: Sep 12, 2026, 22:49 UTC

1 46604U 18079CC  26255.95070050 -.00000150  00000-0  00000-0 0  9998
2 46604  13.5543  46.9090 4592733 282.7899  31.2182  1.74538051 43434

Volg ATLAS 5 CENTAUR DEB in realtime met AllMySat

Download on the App Store